Location: *
(42.0175°N, 9.4056°E)
Time: 21:42:20
(UTC+00:00)

Thor Agena Rocket - Pass Details

Date: 25 August 2019
Orbit: 760 x 807 km, 99.0° (Epoch: 17 September)

Event Time Altitude Azimuth Distance (km) Brightness Sun altitude
Rises 21:29:28 0° 8° (N) 3,285 7.4 -31.1°
Reaches altitude 10° 21:31:50 10° 4° (N) 2,360 6.6 -31.4°
Enters shadow 21:36:29 50° 305° (NW) 1,011 4.3 -31.8°
